H1 CPF 2 NER 2022 10 25 9 298 01 glonass133 H2 1403201 9133 40001 2022 10 25 0 0 0 2022 10 28 23 45 0 900 1 1 0 0 0 1 H9 10 0 59877 0.00000 0 -21154828.555 14195276.587 -822789.098 10 0 59877 900.00000 0 -20788183.316 14182943.275 -4049227.134 10 0 59877 1800.00000 0 -20125928.649 13887498.906 -7196826.410 10 0 59877 2700.00000 0 -19217404.610 13277831.662 -10204309.282 10 0 59877 3600.00000 0 -18119029.650 12334567.676 -13013142.796 10 0 59877 4500.00000 0 -16891825.573 11051128.201 -15568685.765 10 0 59877 5400.00000 0 -15598767.946 9434253.418 -17821256.984 10 0 59877 6300.00000 0 -14302074.813 7503970.085 -19727103.340 10 0 59877 7200.00000 0 -13060548.853 5293003.968 -21249248.773 10 0 59877 8100.00000 0 -11927085.300 2845661.433 -22358207.926 10 0 59877 9000.00000 0 -10946450.461 216226.889 -23032551.255 10 0 59877 9900.00000 0 -10153423.713 -2533056.972 -23259311.418 10 0 59877 10800.00000 0 -9571380.158 -5334342.064 -23034224.124 10 0 59877 11700.00000 0 -9211372.201 -8116763.242 -22361799.753 10 0 59877 12600.00000 0 -9071747.237 -10809154.785 -21255225.291 10 0 59877 13500.00000 0 -9138316.032 -13342782.862 -19736099.260 10 0 59877 14400.00000 0 -9385063.343 -15653981.335 -17834005.308 10 0 59877 15300.00000 0 -9775369.763 -17686582.416 -15585933.052 10 0 59877 16200.00000 0 -10263692.466 -19394042.375 -13035557.525 10 0 59877 17100.00000 0 -10797633.516 -20741175.231 -10232391.063 10 0 59877 18000.00000 0 -11320308.299 -21705423.492 -7230823.950 10 0 59877 18900.00000 0 -11772914.162 -22277614.342 -4089072.141 10 0 59877 19800.00000 0 -12097391.032 -22462170.955 -868052.108 10 0 59877 20700.00000 0 -12239061.965 -22276771.125 2369795.558 10 0 59877 21600.00000 0 -12149142.393 -21751468.497 5561711.328 10 0 59877 22500.00000 0 -11787012.322 -20927313.826 8645827.645 10 0 59877 23400.00000 0 -11122155.610 -19854534.526 11562362.312 10 0 59877 24300.00000 0 -10135684.323 -18590349.015 14254771.629 10 0 59877 25200.00000 0 -8821383.370 -17196507.475 16670841.318 10 0 59877 26100.00000 0 -7186230.640 -15736661.880 18763694.509 10 0 59877 27000.00000 0 -5250369.527 -14273675.147 20492697.716 10 0 59877 27900.00000 0 -3046533.398 -12866981.641 21824247.749 10 0 59877 28800.00000 0 -618944.314 -11570109.102 22732424.590 10 0 59877 29700.00000 0 1978270.012 -10428465.299 23199497.858 10 0 59877 30600.00000 0 4683077.086 -9477481.719 23216277.042 10 0 59877 31500.00000 0 7427876.874 -8741191.883 22782298.446 10 0 59877 32400.00000 0 10142079.989 -8231303.869 21905844.721 10 0 59877 33300.00000 0 12754821.043 -7946806.118 20603795.794 10 0 59877 34200.00000 0 15197695.305 -7874123.495 18901313.110 10 0 59877 35100.00000 0 17407405.476 -7987817.486 16831362.199 10 0 59877 36000.00000 0 19328208.564 -8251801.571 14434081.696 10 0 59877 36900.00000 0 20914060.629 -8621020.936 11756010.110 10 0 59877 37800.00000 0 22130369.422 -9043525.805 8849184.613 10 0 59877 38700.00000 0 22955281.127 -9462850.681 5770128.910 10 0 59877 39600.00000 0 23380446.652 -9820598.339 2578749.964 10 0 59877 40500.00000 0 23411235.018 -10059118.357 -662834.588 10 0 59877 41400.00000 0 23066384.731 -10124165.524 -3891514.749 10 0 59877 42300.00000 0 22377108.059 -9967424.112 -7044427.302 10 0 59877 43200.00000 0 21385686.506 -9548789.537 -10060190.460 10 0 59877 44100.00000 0 20143617.603 -8838309.275 -12880108.723 10 0 59877 45000.00000 0 18709392.206 -7817699.555 -15449323.275 10 0 59877 45900.00000 0 17145997.205 -6481372.557 -17717884.665 10 0 59877 46800.00000 0 15518249.919 -4836929.863 -19641726.385 10 0 59877 47700.00000 0 13890077.303 -2905100.733 -21183520.198 10 0 59877 48600.00000 0 12321854.930 -719127.420 -22313396.873 10 0 59877 49500.00000 0 10867917.620 1676377.034 -23009518.940 10 0 59877 50400.00000 0 9574345.881 4227050.768 -23258495.125 10 0 59877 51300.00000 0 8477120.131 6870817.307 -23055629.478 10 0 59877 52200.00000 0 7600718.827 9540247.426 -22405001.347 10 0 59877 53100.00000 0 6957217.769 12165150.560 -21319375.594 10 0 59877 54000.00000 0 6545926.579 14675288.558 -19819945.591 10 0 59877 54900.00000 0 6353575.902 17003099.593 -17935914.501 10 0 59877 55800.00000 0 6355045.860 19086319.763 -15703923.343 10 0 59877 56700.00000 0 6514603.775 20870394.390 -13167337.017 10 0 59877 57600.00000 0 6787597.978 22310579.720 -10375402.060 10 0 59877 58500.00000 0 7122535.681 23373648.561 -7382292.327 10 0 59877 59400.00000 0 7463456.833 24039129.878 -4246060.808 10 0 59877 60300.00000 0 7752503.688 24300031.642 -1027517.595 10 0 59877 61200.00000 0 7932577.619 24163017.637 2210944.478 10 0 59877 62100.00000 0 7949971.159 23648031.614 5406554.087 10 0 59877 63000.00000 0 7756864.219 22787385.119 8497372.525 10 0 59877 63900.00000 0 7313579.199 21624347.512 11423488.433 10 0 59877 64800.00000 0 6590499.700 20211297.416 14128173.386 10 0 59877 65700.00000 0 5569571.563 18607512.861 16558976.363 10 0 59877 66600.00000 0 4245322.355 16876692.399 18668736.243 10 0 59877 67500.00000 0 2625355.378 15084310.459 20416493.232 10 0 59877 68400.00000 0 730296.040 13294916.960 21768281.991 10 0 59877 69300.00000 0 -1406808.838 11569493.491 22697791.431 10 0 59877 70200.00000 0 -3741615.618 9962975.925 23186878.624 10 0 59877 71100.00000 0 -6220087.492 8522046.383 23225926.907 10 0 59877 72000.00000 0 -8780512.273 7283286.466 22814040.961 10 0 59877 72900.00000 0 -11355852.247 6271768.646 21959074.610 10 0 59877 73800.00000 0 -13876329.893 5500144.644 20677490.000 10 0 59877 74700.00000 0 -16272143.011 4968269.074 18994049.943 10 0 59877 75600.00000 0 -18476197.061 4663374.265 16941348.278 10 0 59877 76500.00000 0 -20426741.199 4560789.137 14559186.235 10 0 59877 77400.00000 0 -22069797.895 4625172.065 11893805.948 10 0 59877 78300.00000 0 -23361284.215 4812205.767 8996995.242 10 0 59877 79200.00000 0 -24268735.358 5070682.483 5925080.623 10 0 59877 80100.00000 0 -24772557.412 5344890.767 2737828.080 10 0 59877 81000.00000 0 -24866756.070 5577202.104 -502726.519 10 0 59877 81900.00000 0 -24559110.193 5710746.595 -3733494.004 10 0 59877 82800.00000 0 -23870782.689 5692063.022 -6891570.548 10 0 59877 83700.00000 0 -22835385.290 5473609.421 -9915473.115 10 0 59877 84600.00000 0 -21497537.097 5016026.242 -12746346.385 10 0 59877 85500.00000 0 -19910978.458 4290054.880 -15329116.401 10 0 59878 0.00000 0 -18136320.738 3278029.197 -17613567.464 10 0 59878 900.00000 0 -16238526.693 1974875.450 -19555321.916 10 0 59878 1800.00000 0 -14284230.751 388579.130 -21116700.527 10 0 59878 2700.00000 0 -12339009.161 -1459903.266 -22267451.147 10 0 59878 3600.00000 0 -10464717.116 -3537282.878 -22985328.866 10 0 59878 4500.00000 0 -8717003.361 -5799101.403 -23256518.525 10 0 59878 5400.00000 0 -7143105.752 -8191369.737 -23075892.155 10 0 59878 6300.00000 0 -5780018.884 -10652614.086 -22447097.354 10 0 59878 7200.00000 0 -4653108.926 -13116244.396 -21382475.846 10 0 59878 8100.00000 0 -3775231.815 -15513146.811 -19902814.580 10 0 59878 9000.00000 0 -3146389.779 -17774392.767 -18036934.756 10 0 59878 9900.00000 0 -2753938.689 -19833952.492 -15821127.145 10 0 59878 10800.00000 0 -2573335.755 -21631300.784 -13298444.747 10 0 59878 11700.00000 0 -2569394.614 -23113807.349 -10517866.441 10 0 59878 12600.00000 0 -2697993.853 -24238812.929 -7533347.732 10 0 59878 13500.00000 0 -2908166.146 -24975305.515 -4402776.687 10 0 59878 14400.00000 0 -3144479.373 -25305127.492 -1186855.014 10 0 59878 15300.00000 0 -3349609.048 -25223663.971 2052074.274 10 0 59878 16200.00000 0 -3466993.363 -24739984.141 5251230.175 10 0 59878 17100.00000 0 -3443458.801 -23876430.144 8348605.033 10 0 59878 18000.00000 0 -3231705.514 -22667670.913 11284160.608 10 0 59878 18900.00000 0 -2792547.564 -21159260.582 14000986.085 10 0 59878 19800.00000 0 -2096813.284 -19405761.609 16446396.039 10 0 59878 20700.00000 0 -1126825.276 -17468510.724 18572947.383 10 0 59878 21600.00000 0 122603.062 -15413120.532 20339356.161 10 0 59878 22500.00000 0 1643697.495 -13306820.417 21711296.843 10 0 59878 23400.00000 0 3415800.585 -11215747.030 22662068.958 10 0 59878 24300.00000 0 5405995.530 -9202296.618 23173118.433 10 0 59878 25200.00000 0 7570252.115 -7322648.860 23234403.529 10 0 59878 26100.00000 0 9855048.931 -5624564.909 22844598.052 10 0 59878 27000.00000 0 12199406.167 -4145550.999 22011127.418 10 0 59878 27900.00000 0 14537246.040 -2911463.901 20750036.094 10 0 59878 28800.00000 0 16799983.824 -1935616.405 19085688.036 10 0 59878 29700.00000 0 18919242.497 -1218420.158 17050304.836 10 0 59878 30600.00000 0 20829578.292 -747580.815 14683349.405 10 0 59878 31500.00000 0 22471103.300 -498837.346 12030766.209 10 0 59878 32400.00000 0 23791895.119 -437214.248 9144092.024 10 0 59878 33300.00000 0 24750091.943 -518733.567 6079454.014 10 0 59878 34200.00000 0 25315584.288 -692513.978 2896474.653 10 0 59878 35100.00000 0 25471231.395 -903167.263 -342894.899 10 0 59878 36000.00000 0 25213550.341 -1093389.696 -3575589.508 10 0 59878 36900.00000 0 24552848.233 -1206637.205 -6738668.133 10 0 59878 37800.00000 0 23512791.693 -1189769.439 -9770549.928 10 0 59878 38700.00000 0 22129431.805 -995549.162 -12612223.097 10 0 59878 39600.00000 0 20449726.048 -584889.617 -15208401.710 10 0 59878 40500.00000 0 18529620.079 71246.554 -17508607.098 10 0 59878 41400.00000 0 16431770.839 990378.243 -19468152.218 10 0 59878 42300.00000 0 14223007.463 2177529.436 -21049009.564 10 0 59878 43200.00000 0 11971637.151 3624787.136 -22220546.000 10 0 59878 44100.00000 0 9744709.209 5311412.585 -22960110.788 10 0 59878 45000.00000 0 7605351.772 7204501.244 -23253466.132 10 0 59878 45900.00000 0 5610292.018 9260163.973 -23095052.925 10 0 59878 46800.00000 0 3807662.462 11425180.077 -22488087.512 10 0 59878 47700.00000 0 2235183.610 13639053.201 -21444488.556 10 0 59878 48600.00000 0 918797.065 15836384.521 -19984636.241 10 0 59878 49500.00000 0 -128195.789 17949464.592 -18136969.043 10 0 59878 50400.00000 0 -905455.535 19910976.181 -15937426.297 10 0 59878 51300.00000 0 -1425375.493 21656696.004 -13428747.500 10 0 59878 52200.00000 0 -1712312.999 23128083.337 -10659641.873 10 0 59878 53100.00000 0 -1801315.007 24274648.121 -7683844.191 10 0 59878 54000.00000 0 -1736392.896 25056000.400 -4559074.881 10 0 59878 54900.00000 0 -1568420.044 25443496.084 -1345924.261 10 0 59878 55800.00000 0 -1352741.321 25421410.760 1893317.686 10 0 59878 56700.00000 0 -1146595.678 24987592.868 5095863.642 10 0 59878 57600.00000 0 -1006460.705 24153569.170 8199640.400 10 0 59878 58500.00000 0 -985431.228 22944098.157 11144486.185 10 0 59878 59400.00000 0 -1130742.544 21396189.976 13873311.028 10 0 59878 60300.00000 0 -1481542.841 19557633.494 16333198.135 10 0 59878 61200.00000 0 -2067008.942 17485091.572 18476425.255 10 0 59878 62100.00000 0 -2904885.181 15241843.409 20261386.789 10 0 59878 63000.00000 0 -4000507.738 12895267.275 21653399.209 10 0 59878 63900.00000 0 -5346356.502 10514167.777 22625374.503 10 0 59878 64800.00000 0 -6922154.795 8166058.016 23158348.882 10 0 59878 65700.00000 0 -8695514.516 5914508.946 23241856.515 10 0 59878 66600.00000 0 -10623101.604 3816675.516 22874140.820 10 0 59878 67500.00000 0 -12652275.063 1921101.939 22062198.761 10 0 59878 68400.00000 0 -14723132.937 265897.009 20821656.517 10 0 59878 69300.00000 0 -16770881.321 -1122644.749 19176478.011 10 0 59878 70200.00000 0 -18728428.678 -2230918.726 17158510.857 10 0 59878 71100.00000 0 -20529097.816 -3058346.226 14806877.410 10 0 59878 72000.00000 0 -22109342.245 -3617156.774 12167221.789 10 0 59878 72900.00000 0 -23411353.023 -3931626.104 9290826.686 10 0 59878 73800.00000 0 -24385446.091 -4036802.218 6233616.645 10 0 59878 74700.00000 0 -24992128.939 -3976773.726 3055067.175 10 0 59878 75600.00000 0 -25203758.655 -3802554.421 -182958.760 10 0 59878 76500.00000 0 -25005720.485 -3569674.600 -3417423.553 10 0 59878 77400.00000 0 -24397076.337 -3335582.364 -6585352.365 10 0 59878 78300.00000 0 -23390655.235 -3156966.478 -9625069.834 10 0 59878 79200.00000 0 -22012581.538 -3087115.694 -12477410.812 10 0 59878 80100.00000 0 -20301260.842 -3173427.933 -15086880.268 10 0 59878 81000.00000 0 -18305866.519 -3455176.071 -17402738.929 10 0 59878 81900.00000 0 -16084391.054 -3961625.986 -19379992.924 10 0 59878 82800.00000 0 -13701344.652 -4710587.152 -20980267.893 10 0 59878 83700.00000 0 -11225198.165 -5707457.498 -22172550.805 10 0 59878 84600.00000 0 -8725677.730 -6944803.031 -22933785.576 10 0 59878 85500.00000 0 -6271024.383 -8402489.966 -23249311.685 10 0 59879 0.00000 0 -3925332.869 -10048363.632 -23113138.297 10 0 59879 900.00000 0 -1746078.660 -11839446.528 -22528049.393 10 0 59879 1800.00000 0 218061.708 -13723603.047 -21505539.118 10 0 59879 2700.00000 0 1929011.987 -15641604.219 -20065579.160 10 0 59879 3600.00000 0 3360642.783 -17529504.167 -18236223.333 10 0 59879 4500.00000 0 4499610.487 -19321230.091 -16053057.458 10 0 59879 5400.00000 0 5345655.415 -20951277.821 -13558505.364 10 0 59879 6300.00000 0 5911348.767 -22357400.856 -10801004.394 10 0 59879 7200.00000 0 6221300.783 -23483180.927 -7834066.346 10 0 59879 8100.00000 0 6310864.966 -24280373.189 -4715241.753 10 0 59879 9000.00000 0 6224394.071 -24710928.396 -1505007.294 10 0 59879 9900.00000 0 6013122.135 -24748607.793 1734402.317 10 0 59879 10800.00000 0 5732762.384 -24380123.402 4940195.654 10 0 59879 11700.00000 0 5440922.603 -23605756.054 8050236.144 10 0 59879 12600.00000 0 5194447.053 -22439425.207 11004240.625 10 0 59879 13500.00000 0 5046797.065 -20908207.353 13744942.055 10 0 59879 14400.00000 0 5045580.737 -19051322.656 16219194.258 10 0 59879 15300.00000 0 5230335.871 -16918631.502 18378997.670 10 0 59879 16200.00000 0 5630659.775 -14568702.864 20182426.708 10 0 59879 17100.00000 0 6264765.070 -12066534.024 21594441.280 10 0 59879 18000.00000 0 7138522.974 -9481015.605 22587567.001 10 0 59879 18900.00000 0 8245035.336 -6882246.332 23142431.247 10 0 59879 19800.00000 0 9564754.774 -4338808.083 23248144.681 10 0 59879 20700.00000 0 11066149.496 -1915113.665 22902520.639 10 0 59879 21600.00000 0 12706886.741 331063.279 22112127.666 10 0 59879 22500.00000 0 14435487.090 2350774.161 20892173.436 10 0 59879 23400.00000 0 16193381.996 4105706.497 19266221.387 10 0 59879 24300.00000 0 17917289.779 5569545.005 17265744.460 10 0 59879 25200.00000 0 19541811.513 6728826.099 14929523.522 10 0 59879 26100.00000 0 21002138.461 7583250.127 12302901.138 10 0 59879 27000.00000 0 22236757.456 8145438.483 9436904.420 10 0 59879 27900.00000 0 23190040.125 8440146.085 6387253.474 10 0 59879 28800.00000 0 23814606.185 8502962.809 3213274.712 10 0 59879 29700.00000 0 24073360.243 8378559.387 -23259.542 10 0 59879 30600.00000 0 23941115.048 8118552.835 -3259341.916 10 0 59879 31500.00000 0 23405731.595 7779082.879 -6431966.642 10 0 59879 32400.00000 0 22468726.978 7418203.369 -9479366.799 10 0 59879 33300.00000 0 21145323.651 7093200.648 -12342226.813 10 0 59879 34200.00000 0 19463937.591 6857953.869 -14964845.371 10 0 59879 35100.00000 0 17465126.840 6760450.386 -17296225.233 10 0 59879 36000.00000 0 15200044.778 6840562.413 -19291068.108 10 0 59879 36900.00000 0 12728463.482 7128179.762 -20910654.961 10 0 59879 37800.00000 0 10116450.400 7641777.958 -22123594.786 10 0 59879 38700.00000 0 7433795.875 8387482.331 -22906427.833 10 0 59879 39600.00000 0 4751299.178 9358667.411 -23244072.251 10 0 59879 40500.00000 0 2138026.084 10536108.240 -23130106.496 10 0 59879 41400.00000 0 -341348.344 11888676.978 -22566882.963 10 0 59879 42300.00000 0 -2629001.948 13374555.232 -21565471.623 10 0 59879 43200.00000 0 -4676131.584 14942911.108 -20145435.565 10 0 59879 44100.00000 0 -6444734.612 16535970.657 -18334443.396 10 0 59879 45000.00000 0 -7908933.435 18091397.002 -16167726.450 10 0 59879 45900.00000 0 -9055789.921 19544877.760 -13687391.496 10 0 59879 46800.00000 0 -9885577.786 20832812.754 -10941602.240 10 0 59879 47700.00000 0 -10411503.451 21894989.805 -7983645.406 10 0 59879 48600.00000 0 -10658888.871 22677136.950 -4870899.247 10 0 59879 49500.00000 0 -10663852.097 23133244.499 -1663724.174 10 0 59879 50400.00000 0 -10471542.132 23227559.880 1575703.205 10 0 59879 51300.00000 0 -10134003.208 22936171.834 4784590.345 10 0 59879 52200.00000 0 -9707758.896 22248117.544 7900740.406 10 0 59879 53100.00000 0 -9251218.084 21165966.108 10863751.979 10 0 59879 54000.00000 0 -8822012.196 19705853.535 13616184.079 10 0 59879 54900.00000 0 -8474375.788 17896967.145 16104664.208 10 0 59879 55800.00000 0 -8256680.771 15780500.117 18280918.410 10 0 59879 56700.00000 0 -8209228.061 13408118.812 20102703.861 10 0 59879 57600.00000 0 -8362389.714 10840005.571 21534626.383 10 0 59879 58500.00000 0 -8735180.033 8142557.284 22548827.391 10 0 59879 59400.00000 0 -9334316.312 5385834.166 23125527.231 10 0 59879 60300.00000 0 -10153809.644 2640863.495 23253414.438 10 0 59879 61200.00000 0 -11175104.141 -23090.778 22929873.157 10 0 59879 62100.00000 0 -12367760.210 -2541180.110 22161043.880 10 0 59879 63000.00000 0 -13690654.764 -4855435.825 20961715.586 10 0 59879 63900.00000 0 -15093649.569 -6916943.915 19355050.453 10 0 59879 64800.00000 0 -16519659.081 -8687640.119 17372145.429 10 0 59879 65700.00000 0 -17907032.108 -10141650.640 15051438.024 10 0 59879 66600.00000 0 -19192147.870 -11266122.576 12437966.914 10 0 59879 67500.00000 0 -20312117.533 -12061509.439 9582500.891 10 0 59879 68400.00000 0 -21207477.285 -12541299.980 6540552.563 10 0 59879 69300.00000 0 -21824758.751 -12731202.036 3371295.949 10 0 59879 70200.00000 0 -22118827.359 -12667816.331 136409.277 10 0 59879 71100.00000 0 -22054888.723 -12396857.036 -3101133.843 10 0 59879 72000.00000 0 -21610077.041 -11970995.304 -6278300.291 10 0 59879 72900.00000 0 -20774557.180 -11447418.271 -9333235.122 10 0 59879 73800.00000 0 -19552092.913 -10885208.237 -12206475.785 10 0 59879 74700.00000 0 -17960056.548 -10342654.350 -14842117.959 10 0 59879 75600.00000 0 -16028879.087 -9874611.916 -17188909.434 10 0 59879 76500.00000 0 -13800963.853 -9530022.108 -19201250.132 10 0 59879 77400.00000 0 -11329109.293 -9349697.725 -20840078.467 10 0 59879 78300.00000 0 -8674507.275 -9364468.968 -22073627.015 10 0 59879 79200.00000 0 -5904400.800 -9593767.533 -22878033.260 10 0 59879 80100.00000 0 -3089499.141 -10044708.492 -23237794.267 10 0 59879 81000.00000 0 -301258.096 -10711708.172 -23146057.431 10 0 59879 81900.00000 0 2390861.845 -11576653.521 -22604742.603 10 0 59879 82800.00000 0 4922045.947 -12609615.257 -21624494.180 10 0 59879 83700.00000 0 7234575.192 -13770074.312 -20224464.899 10 0 59879 84600.00000 0 9279975.331 -15008609.712 -18431936.131 10 0 59879 85500.00000 0 11020777.162 -16268976.810 -16281782.481 10 0 59880 0.00000 0 12431816.572 -17490488.548 -13815791.484 10 0 59880 900.00000 0 13501022.784 -18610600.583 -11081850.213 10 0 59880 1800.00000 0 14229661.932 -19567590.381 -8133017.875 10 0 59880 2700.00000 0 14632030.176 -20303220.307 -5026497.701 10 0 59880 3600.00000 0 14734608.809 -20765271.567 -1822531.044 10 0 59880 4500.00000 0 14574718.911 -20909843.480 1416766.376 10 0 59880 5400.00000 0 14198732.955 -20703321.583 4628603.628 10 0 59880 6300.00000 0 13659919.246 -20123931.897 7750726.215 10 0 59880 7200.00000 0 13016010.243 -19162815.898 10722616.934 10 0 59880 8100.00000 0 12326597.301 -17824580.686 13486663.086 10 0 59880 9000.00000 0 11650461.405 -16127300.534 15989267.834 10 0 59880 9900.00000 0 11042952.082 -14101968.879 18181884.524 10 0 59880 10800.00000 0 10553524.594 -11791422.429 20021954.473 10 0 59880 11700.00000 0 10223538.807 -9248780.934 21473730.489 10 0 59880 12600.00000 0 10084412.298 -6535466.204 22508970.516 10 0 59880 13500.00000 0 10156205.487 -3718881.249 23107488.277 10 0 59880 14400.00000 0 10446698.714 -869844.527 23257550.267 10 0 59880 15300.00000 0 10951000.740 1940115.458 22956111.238 10 0 59880 16200.00000 0 11651706.136 4641494.072 22208883.154 10 0 59880 17100.00000 0 12519596.141 7169460.500 21030235.586 10 0 59880 18000.00000 0 13514854.811 9466314.173 19442928.544 10 0 59880 18900.00000 0 14588750.610 11483646.062 17477681.870 10 0 59880 19800.00000 0 15685713.811 13184115.047 15172588.436 10 0 59880 20700.00000 0 16745723.002 14542765.232 12572381.557 10 0 59880 21600.00000 0 17706900.586 15547829.193 9727570.040 10 0 59880 22500.00000 0 18508207.733 16200983.550 6693457.125 10 0 59880 23400.00000 0 19092124.550 16517046.211 3529062.354 10 0 59880 24300.00000 0 19407201.369 16523128.425 295967.587 10 0 59880 25200.00000 0 19410372.131 16257277.985 -2942889.774 10 0 59880 26100.00000 0 19068930.745 15766671.676 -6124451.784 10 0 59880 27000.00000 0 18362085.488 15105434.487 -9186778.043 10 0 59880 27900.00000 0 17282024.489 14332179.038 -12070261.538 10 0 59880 28800.00000 0 15834446.269 13507370.659 -14718797.354 10 0 59880 29700.00000 0 14038532.170 12690630.798 -17080880.572 10 0 59880 30600.00000 0 11926361.260 11938093.889 -19110611.401 10 0 59880 31500.00000 0 9541792.150 11299930.142 -20768587.600 10 0 59880 32400.00000 0 6938858.474 10818139.294 -22022667.005 10 0 59880 33300.00000 0 4179745.269 10524708.409 -22848585.809 10 0 59880 34200.00000 0 1332430.869 10440211.061 -23230421.224 10 0 59880 35100.00000 0 -1531907.458 10572906.254 -23160890.530 10 0 59880 36000.00000 0 -4341616.366 10918374.157 -22641481.631 10 0 59880 36900.00000 0 -7027304.993 11459703.030 -21682413.552 10 0 59880 37800.00000 0 -9524486.262 12168218.599 -20302428.442 10 0 59880 38700.00000 0 -11776012.307 13004724.417 -18528419.768 10 0 59880 39600.00000 0 -13734204.098 13921200.507 -16394904.311 10 0 59880 40500.00000 0 -15362588.307 14862888.483 -13943348.458 10 0 59880 41400.00000 0 -16637170.859 15770675.371 -11221361.785 10 0 59880 42300.00000 0 -17547195.739 16583675.894 -8281773.568 10 0 59880 43200.00000 0 -18095359.145 17241904.774 -5181609.841 10 0 59880 44100.00000 0 -18297471.579 17688926.868 -1980990.576 10 0 59880 45000.00000 0 -18181583.368 17874373.838 1258031.848 10 0 59880 45900.00000 0 -17786611.407 17756221.633 4472670.682 10 0 59880 46800.00000 0 -17160525.575 17302732.987 7600616.446 10 0 59880 47700.00000 0 -16358171.507 16493983.095 10581238.902 10 0 59880 48600.00000 0 -15438821.473 15322903.946 13356756.454 10 0 59880 49500.00000 0 -14463556.329 13795802.796 15873350.745 10 0 59880 50400.00000 0 -13492588.369 11932332.073 18082205.193 10 0 59880 51300.00000 0 -12582637.313 9764910.785 19940447.884 10 0 59880 52200.00000 0 -11784469.299 7337620.044 21411981.038 10 0 59880 53100.00000 0 -11140701.986 4704617.246 22468181.280 10 0 59880 54000.00000 0 -10683967.729 1928133.185 23088457.506 10 0 59880 54900.00000 0 -10435511.975 -923866.327 23260655.572 10 0 59880 55800.00000 0 -10404285.997 -3780258.716 22981301.787 10 0 59880 56700.00000 0 -10586572.578 -6569477.144 22255680.064 10 0 59880 57600.00000 0 -10966161.099 -9222245.816 21097740.542 10 0 59880 58500.00000 0 -11515065.602 -11674225.256 19529840.525 10 0 59880 59400.00000 0 -12194756.573 -13868458.151 17582321.723 10 0 59880 60300.00000 0 -12957855.525 -15757514.261 15292930.873 10 0 59880 61200.00000 0 -13750221.676 -17305244.883 12706094.011 10 0 59880 62100.00000 0 -14513343.161 -18488073.556 9872057.673 10 0 59880 63000.00000 0 -15186931.847 -19295768.804 6845913.139 10 0 59880 63900.00000 0 -15711611.735 -19731666.378 3686522.645 10 0 59880 64800.00000 0 -16031586.484 -19812331.784 455368.655 10 0 59880 65700.00000 0 -16097172.087 -19566677.619 -2784650.801 10 0 59880 66600.00000 0 -15867086.176 -19034573.503 -5970456.246 10 0 59880 67500.00000 0 -15310395.648 -18265008.176 -9040025.185 10 0 59880 68400.00000 0 -14408038.797 -17313882.492 -11933609.536 10 0 59880 69300.00000 0 -13153856.393 -16241527.742 -14594907.122 10 0 59880 70200.00000 0 -11555087.111 -15110055.439 -16972163.512 10 0 59880 71100.00000 0 -9632305.632 -13980651.539 -19019182.121 10 0 59880 72000.00000 0 -7418805.530 -12910930.193 -20696222.582 10 0 59880 72900.00000 0 -4959452.533 -11952459.122 -21970770.028 10 0 59880 73800.00000 0 -2309056.012 -11148560.957 -22818160.803 10 0 59880 74700.00000 0 469673.234 -10532482.819 -23222053.082 10 0 59880 75600.00000 0 3308493.819 -10126010.407 -23174734.219 10 0 59880 76500.00000 0 6136234.747 -9938583.849 -22677259.788 10 0 59880 77400.00000 0 8881518.584 -9966951.294 -21739422.541 10 0 59880 78300.00000 0 11475494.328 -10195373.525 -20379552.718 10 0 59880 79200.00000 0 13854467.272 -10596369.781 -18624154.183 10 0 59880 80100.00000 0 15962317.590 -11131972.418 -16507383.885 10 0 59880 81000.00000 0 17752608.446 -11755436.789 -14070384.975 10 0 59880 81900.00000 0 19190297.339 -12413333.891 -11360486.504 10 0 59880 82800.00000 0 20252980.843 -13047937.339 -8430285.178 10 0 59880 83700.00000 0 20931622.409 -13599804.106 -5336626.771 10 0 59880 84600.00000 0 21230734.241 -14010440.326 -2139506.653 10 0 59880 85500.00000 0 21168006.903 -14224940.014 1099089.426 99